Tracking 31080 objects as of 20-Jul-2025
HD Live streaming from Space Station
objects crossing your sky now

CZ-3B R/B

Track CZ-3B R/B now!
10-day predictions


NORAD ID: 45808
Int'l Code: 2020-040B
Perigee: 202.1 km
Apogee: 26,260.2 km
Inclination: 28.1 °
Period: 455.2 minutes
Semi major axis: 19602 km
RCS: Unknown
Launch date: June 23, 2020
Source: People's Republic of China (PRC)
Launch site: Xichang Space Center, China (XSC)

Note: This is a ROCKET BODY
Your satellite tracking list
Your tracking list is empty




NASA's NSSDC Master Catalog

Two Line Element Set (TLE):
1 45808U 20040B   25198.23070054  .00058782 -47196-6  25081-2 0  9999
2 45808  28.0630 164.3829 6646745 124.4043 316.8531  3.16335650 50289
Source of the keplerian elements: AFSPC